This demonstration page uses our WeatherBlox Daily Observations layout. Learn more.

Hourly Observations for September 17, 2016

Temp ( °F °C ) Dew Point ( °F °C ) Humidity (%) Winds ( mph kmh ) Pressure ( in mb ) Visibility ( mi km ) Precip ( " mm )
12:15 am 00:15 Clear 54 12 50 10 88 88 WNW 3 6 30.06 1018 10 16.09344 0 0
12:35 am 00:35 Clear 55 12.9 49 9.5 80 80 WNW 5 7 30.06 1018 10 16.09344 0 0
12:55 am 00:55 Clear 55 12.6 49 9.2 80 80 WNW 5 7 30.06 1018 10 16.09344 0 0
1:15 am 01:15 Clear 54 12 49 9.3 84 84 WNW 6 9 30.06 1018 10 16.09344 0 0
1:35 am 01:35 Clear 54 12.1 48 9 82 82 WNW 5 7 30.06 1018 10 16.09344 0 0
1:55 am 01:55 Clear 54 12.1 48 9 82 82 WNW 5 7 30.06 1018 10 16.09344 0 0
2:15 am 02:15 Clear 53 11.5 48 9 85 85 WNW 6 9 30.06 1018 10 16.09344 0 0
2:35 am 02:35 Clear 53 11.6 48 8.8 83 83 WNW 3 6 30.06 1018 10 16.09344 0 0
2:55 am 02:55 Clear 52 11 48 8.7 86 86 Calm 30.06 1018 10 16.09344 0 0
3:15 am 03:15 Clear 51 10.8 47 8.3 85 85 WNW 3 6 30.06 1018 10 16.09344 0 0
3:35 am 03:35 Clear 52 10.9 47 8.1 83 83 WNW 5 7 30.06 1018 10 16.09344 0 0
3:55 am 03:55 Clear 50 10.1 46 8 87 87 WNW 3 6 30.06 1018 10 16.09344 0 0
4:15 am 04:15 Clear 50 9.9 46 7.8 87 87 Calm 30.06 1018 10 16.09344 0 0
4:35 am 04:35 Clear 50 9.9 46 7.6 86 86 WNW 3 6 30.06 1018 10 16.09344 0 0
4:55 am 04:55 Clear 49 9.7 46 7.6 87 87 NW 5 7 30.09 1019 10 16.09344 0 0
5:15 am 05:15 Clear 50 9.8 46 7.5 86 86 WNW 3 6 30.06 1018 10 16.09344 0 0
5:35 am 05:35 Clear 50 10.2 46 7.5 84 84 W 3 6 30.06 1018 10 16.09344 0 0
5:55 am 05:55 Clear 49 9.5 46 7.5 87 87 W 3 6 30.09 1019 10 16.09344 0 0
6:15 am 06:15 Clear 49 9.2 45 7.2 87 87 Calm 30.09 1019 10 16.09344 0 0
6:35 am 06:35 Clear 48 9.1 45 7.4 89 89 Calm 30.09 1019 10 16.09344 0 0
6:55 am 06:55 Clear 50 9.9 45 7.4 85 85 WSW 5 7 30.12 1020 10 16.09344 0 0
7:15 am 07:15 Clear 48 9.1 45 7.1 87 87 W 3 6 30.12 1020 10 16.09344 0 0
7:35 am 07:35 Sunny 49 9.6 45 7.2 85 85 WNW 5 7 30.12 1020 10 16.09344 0 0
7:55 am 07:55 Sunny 49 9.5 45 7.3 86 86 W 6 9 30.12 1020 10 16.09344 0 0
8:15 am 08:15 Sunny 52 11 47 8.2 83 83 W 3 6 30.09 1019 10 16.09344 0 0
8:35 am 08:35 Sunny 55 12.8 48 9.1 78 78 W 3 6 30.09 1019 10 16.09344 0 0
8:55 am 08:55 Sunny 58 14.2 48 9.1 72 72 W 3 6 30.06 1018 10 16.09344 0 0
9:15 am 09:15 Sunny 60 15.6 50 9.9 69 69 Calm 30.06 1018 10 16.09344 0 0
9:35 am 09:35 Sunny 62 16.6 48 8.8 60 60 Calm 30.06 1018 10 16.09344 0 0
9:55 am 09:55 Sunny 65 18.5 46 7.9 50 50 Calm 30.03 1017 10 16.09344 0 0
10:15 am 10:15 Sunny 67 19.7 47 8.5 49 49 Calm 30.03 1017 10 16.09344 0 0
10:35 am 10:35 Sunny 69 20.8 47 8.3 45 45 Calm 30 1016 10 16.09344 0 0
10:55 am 10:55 Sunny 71 21.5 47 8.1 42 42 Calm 30 1016 10 16.09344 0 0
11:15 am 11:15 Sunny 72 22.4 43 6.2 35 35 SSW 3 6 30 1016 7 11.265408 0 0
11:35 am 11:35 Sunny 74 23.2 43 6.1 33 33 SSW 3 6 30 1016 7 11.265408 0 0
11:55 am 11:55 Sunny 76 24.2 44 6.9 33 33 SW 7 11 29.97 1015 7 11.265408 0 0
12:15 pm 12:15 Sunny 76 24.5 42 5.5 29 29 SW 6 9 29.97 1015 10 16.09344 0 0
12:35 pm 12:35 Sunny 77 25.1 41 5.2 28 28 SW 7 11 29.97 1015 7 11.265408 0 0
12:55 pm 12:55 Sunny 78 25.5 40 4.6 26 26 SSW 9 15 29.94 1014 7 11.265408 0 0
1:15 pm 13:15 Sunny 78 25.6 40 4.7 26 26 SW 9 15 29.94 1014 7 11.265408 0 0
1:35 pm 13:35 Sunny 78 25.8 42 5.7 28 28 SW 5 7 29.94 1014 10 16.09344 0 0
1:55 pm 13:55 Sunny 79 25.9 42 5.4 27 27 SW 6 9 29.94 1014 10 16.09344 0 0
2:15 pm 14:15 Sunny 79 26.3 42 5.4 26 26 SSW 10 17 29.94 1014 10 16.09344 0 0
2:35 pm 14:35 Partly Cloudy 76 24.6 45 7.3 33 33 SW 6 9 29.94 1014 10 16.09344 0 0
2:55 pm 14:55 Partly Cloudy 78 25.6 44 6.4 29 29 SSW 8 13 29.94 1014 10 16.09344 0 0
3:15 pm 15:15 Mostly Cloudy 75 24 44 6.8 33 33 SSW 6 9 29.94 1014 10 16.09344 0 0
3:35 pm 15:35 Mostly Cloudy 72 22.1 46 7.6 39 39 S 8 13 29.94 1014 10 16.09344 0 0
3:55 pm 15:55 Mostly Cloudy 73 23 45 7.3 37 37 S 8 13 29.91 1013 10 16.09344 0 0
4:15 pm 16:15 Mostly Cloudy 74 23.6 48 9 40 40 SSW 6 9 29.88 1012 10 16.09344 0 0
4:35 pm 16:35 Mostly Cloudy with Rain 74 23.5 48 8.9 39 39 SSE 6 9 29.88 1012 10 16.09344 0 0
4:55 pm 16:55 Partly Cloudy 73 23 51 10.6 46 46 SSE 8 13 29.85 1011 10 16.09344 0 0
5:15 pm 17:15 Partly Cloudy 77 24.8 47 8.2 35 35 S 10 17 29.85 1011 10 16.09344 0 0
5:35 pm 17:35 Partly Cloudy 76 24.3 44 6.4 32 32 SSE 7 11 29.85 1011 10 16.09344 0 0
5:55 pm 17:55 Partly Cloudy 74 23.3 46 7.6 37 37 S 7 11 29.88 1012 10 16.09344 0 0
6:15 pm 18:15 Cloudy 72 22 48 8.8 43 43 S 9 15 29.91 1013 10 16.09344 0.01 0.254
6:35 pm 18:35 Mostly Cloudy with Light Rain 70 21.3 49 9.5 47 47 SSE 16 26 29.88 1012 10 16.09344 0.01 0.254
6:55 pm 18:55 Sunny 71 21.9 48 9 44 44 S 12 19 29.88 1012 10 16.09344 0.01 0.254
7:15 pm 19:15 Sunny 71 21.5 49 9.2 46 46 S 10 17 29.91 1013 10 16.09344 0 0
7:35 pm 19:35 Mostly Cloudy with Light Rain 68 20 51 10.3 54 54 S 12 19 29.88 1012 10 16.09344 0 0
7:55 pm 19:55 Cloudy with Heavy Thunderstorms 62 16.9 54 12.4 75 75 W 30 48 29.97 1015 7 11.265408 0.07 1.778
8:15 pm 20:15 Cloudy with Rain 59 15.2 56 13.1 87 87 WSW 18 30 30.03 1017 7 11.265408 0.05 1.27
8:35 pm 20:35 Cloudy with Rain 59 15.2 55 13 87 87 WSW 14 22 30.03 1017 10 16.09344 0.08 2.032
8:55 pm 20:55 Cloudy with Rain 59 15.1 55 13 87 87 WSW 9 15 30.03 1017 10 16.09344 0.11 2.794
9:15 pm 21:15 Cloudy with Rain 59 15.1 55 12.8 86 86 SW 6 9 30 1016 10 16.09344 0.02 0.508
9:35 pm 21:35 Mostly Cloudy with Light Rain 58 14.6 56 13.1 91 91 SE 5 7 29.97 1015 10 16.09344 0.04 1.016
9:55 pm 21:55 Partly Cloudy 61 16.2 54 12.4 78 78 S 14 22 29.91 1013 10 16.09344 0.04 1.016
10:15 pm 22:15 Clear 60 15.8 55 13 84 84 S 9 15 29.91 1013 10 16.09344 0 0
10:35 pm 22:35 Clear 60 15.6 55 12.8 84 84 SSE 9 15 29.94 1014 10 16.09344 0 0
10:55 pm 22:55 Clear 60 15.8 55 12.6 81 81 SSE 12 19 29.91 1013 10 16.09344 0 0
11:15 pm 23:15 Partly Cloudy 61 16 55 12.5 80 80 S 7 11 29.91 1013 10 16.09344 0 0
11:35 pm 23:35 Clear 60 15.6 55 12.6 82 82 WSW 7 11 29.97 1015 10 16.09344 0 0
11:55 pm 23:55 Clear 60 15.4 55 12.8 85 85 SW 7 11 29.97 1015 10 16.09344 0 0

Powered by AerisWeather